Location: Burbank
(38.7788°N, 114.0429°W)
Time: 06:38:18
(UTC+00:00)

Tiros 1 despin weight - Visible Passes

Search period start: 10 May 2026 00:00
Search period end: 20 May 2026 00:00
Orbit: 555 x 591 km, 48.2° (Epoch: 9 May)

Date Brightness Start Highest point End Pass type
(mag) Time Alt. Az. Time Alt. Az. Time Alt. Az.
12 May ? 11:56:50 10° SSE 11:59:08 14° SE 12:01:25 10° E visible
13 May ? 11:57:24 10° S 12:00:46 23° SE 12:04:06 10° E visible
16 May ? 10:24:37 13° SSE 10:25:54 14° SE 10:28:14 10° E visible
17 May ? 10:26:21 20° SSE 10:27:30 23° SE 10:30:52 10° E visible
18 May ? 10:28:01 30° S 10:29:10 36° SE 10:33:03 10° ENE visible
19 May ? 10:29:36 39° SSW 10:30:51 56° SE 10:35:01 10° ENE visible
